Tracking 33747 objects as of 11-Apr-2026
HD Live streaming from Space Station
objects crossing your sky now

AISTECHSAT-2

Track AISTECHSAT-2 now!
10-day predictions
AISTECHSAT-2 is classified as:


NORAD ID: 43768
Int'l Code: 2018-099L
Perigee: 525.0 km
Apogee: 532.6 km
Inclination: 97.4 °
Period: 95.1 minutes
Semi major axis: 6899 km
RCS: Unknown
Launch date: December 3, 2018
Source: Spain (SPN)
Launch site: AIR FORCE WESTERN TEST RANGE (AFWTR)

Uplink (MHz):
Downlink (MHz): 436.730
Beacon (MHz):
Mode: 4k8*/9k6 FSK
Call sign:
Status: Active

Your satellite tracking list
Your tracking list is empty




NASA's NSSDC Master Catalog

Two Line Element Set (TLE):
1 43768U 18099L   26101.11994198  .00005360  00000-0  29220-3 0  9999
2 43768  97.4374 150.6321 0005482 154.7819 205.3682 15.14785311402127
Source of the keplerian elements: AFSPC